SMOS

Last updated on Mon Sep 21 2026 00:02:45 GMT+0000 (Coordinated Universal Time)

1 36036U 09059A 26263.46911609 .00000177 00000+0 70198-4 0 9999 2 36036 98.4433 89.4209 0001267 78.2982 281.8348 14.39767729887164
UTC large
Height (km)
Speed (km/s)
/
Latitude / Longitude
Inclination (degrees)
Orbital Period (minutes)
Azimuth
Elevation
Range (km)
Doppler Factor

Next 0 passes for location: London (51.5072 / 0.1276)

No passes found over London.